Change the Weather History Date:

Sunday, October 14, 2012

  Actual Average Record
Temperature  
Mean Temperature 62 °F -  
Max Temperature 68 °F 56 °F 71 °F (2000)
Min Temperature 57 °F 40 °F 32 °F (2002)
Degree Days  
Heating Degree Days 2    
Growing Degree Days 12 (Base 50)    
Moisture  
Dew Point 59 °F    
Average Humidity 89    
Maximum Humidity 100    
Minimum Humidity 70    
Precipitation  
Precipitation 0.00 in - - ()
Sea Level Pressure  
Sea Level Pressure 29.77 in    
Wind  
Wind Speed 15 mph ()    
Max Wind Speed 26 mph    
Max Gust Speed 45 mph    
Visibility 9.4 miles    
Events Rain    
Averages and records for this station are not official NWS values.
T = Trace of Precipitation, MM = Missing Value Source: Averaged Metar Reports

Daily Weather History Graph

Daily Weather History Graph

Search for Another Location

Airport or City:

Trip Planner

Search our weather history database for the weather conditions in past years. The results will help you decide how hot, cold, wet, or windy it might be!

Date:

Astronomy

Oct. 14, 2012 Rise Set
Actual Time 7:37 AM EDT 6:42 PM EDT
Civil Twilight 7:08 AM EDT 7:11 PM EDT
Nautical Twilight 6:36 AM EDT 7:44 PM EDT
Astronomical Twilight 6:03 AM EDT 8:16 PM EDT
Moon 6:34 AM EDT (10/14) 6:01 PM EDT (10/14)
Length of Visible Light 12h 02m
Length of Day
11h 05m
Waning Crescent, 1% of the Moon is Illuminated
Oct 14
Waning Crescent
Oct 15
New
Oct 21
First Quarter
Oct 29
Full
Nov 6
Last Quarter

Hourly Weather History & Observations

Time (EDT) Temp. Dew Point Humidity Pressure Visibility Wind Dir Wind Speed Gust Speed Precip Events Conditions
12:00 AM 57.2 °F 55.4 °F 94% 29.91 in 6.0 mi SSW 13.8 mph 24.2 mph N/A Rain Light Rain
12:10 AM 57.2 °F 55.4 °F 94% 29.91 in 8.0 mi SW 11.5 mph 20.7 mph N/A Rain Light Rain
1:00 AM 57.2 °F 55.4 °F 94% 29.89 in 8.0 mi SSW 16.1 mph - N/A Rain Light Rain
1:09 AM 57.2 °F 55.4 °F 94% 29.89 in 8.0 mi SW 16.1 mph 25.3 mph N/A Rain Light Rain
2:00 AM 59 °F 58 °F 94% 29.89 in 7 mi SW 16.1 mph - -   Overcast
2:00 AM 59.0 °F 57.2 °F 94% 29.89 in 8.0 mi SW 16.1 mph 24.2 mph N/A Rain Light Rain
3:00 AM 59.0 °F 59.0 °F 100% 29.88 in 8.0 mi SW 17.3 mph 26.5 mph N/A Rain Light Rain
3:33 AM 60.8 °F 59.0 °F 94% 29.88 in 8.0 mi SW 16.1 mph - N/A Rain Light Rain
4:00 AM 60.8 °F 59.0 °F 94% 29.87 in 8.0 mi SW 16.1 mph 25.3 mph N/A Rain Light Rain
5:00 AM 60.8 °F 60.8 °F 100% 29.87 in 8.0 mi SW 15.0 mph 24.2 mph N/A Rain Light Rain
6:00 AM 62.6 °F 60.8 °F 94% 29.86 in 4.0 mi SW 13.8 mph - N/A   Overcast
6:27 AM 62.6 °F 60.8 °F 94% 29.88 in 3.0 mi SSW 12.7 mph 19.6 mph N/A Rain Light Rain Showers
7:00 AM 62.6 °F 60.8 °F 94% 29.88 in 2.0 mi SSW 13.8 mph - N/A Rain Light Rain Showers
7:19 AM 62.6 °F 60.8 °F 94% 29.87 in 2.0 mi SSW 15.0 mph - N/A Rain Light Rain
7:39 AM 62.6 °F 60.8 °F 94% 29.88 in 2.5 mi SW 13.8 mph 20.7 mph N/A   Overcast
8:00 AM 62 °F 60 °F 93% 29.88 in 3 mi SSW 13.8 mph - -   Overcast
8:00 AM 62.6 °F 60.8 °F 94% 29.88 in 3.0 mi SSW 12.7 mph 20.7 mph N/A   Overcast
9:00 AM 62.6 °F 60.8 °F 94% 29.87 in 4.0 mi SSW 11.5 mph - N/A   Overcast
10:00 AM 62.6 °F 60.8 °F 94% 29.86 in 8.0 mi SSW 17.3 mph 27.6 mph N/A   Overcast
11:00 AM 64.4 °F 60.8 °F 88% 29.84 in 8.0 mi SSW 16.1 mph 25.3 mph N/A   Overcast
12:00 PM 64.4 °F 60.8 °F 88% 29.80 in 15.0 mi South 15.0 mph 26.5 mph N/A   Overcast
1:00 PM 64.4 °F 59.0 °F 83% 29.77 in 12.0 mi South 19.6 mph 27.6 mph N/A   Overcast
2:00 PM 67 °F 59 °F 70% 29.72 in 15 mi South 23.0 mph - -  
2:00 PM 68.0 °F 59.0 °F 73% 29.72 in 15.0 mi South 20.7 mph 33.4 mph N/A   Mostly Cloudy
3:00 PM 68.0 °F 59.0 °F 73% 29.71 in 15.0 mi South 21.9 mph 29.9 mph N/A   Overcast
4:00 PM 68.0 °F 59.0 °F 73% 29.69 in 15.0 mi SSW 18.4 mph 26.5 mph N/A   Overcast
5:00 PM 64.4 °F 59.0 °F 83% 29.67 in 10.0 mi SSW 17.3 mph 26.5 mph N/A Rain Light Rain Showers
6:00 PM 62.6 °F 60.8 °F 94% 29.65 in 10.0 mi SSW 16.1 mph 25.3 mph N/A   Overcast
6:21 PM 62.6 °F 59.0 °F 88% 29.63 in 15.0 mi SSW 15.0 mph 23.0 mph N/A   Mostly Cloudy
7:00 PM 62.6 °F 60.8 °F 94% 29.62 in 15.0 mi South 15.0 mph 21.9 mph N/A   Overcast
8:00 PM 64 °F 60 °F 83% 29.60 in 15 mi SSW 19.6 mph - -   Overcast
8:00 PM 64.4 °F 60.8 °F 88% 29.59 in 15.0 mi South 21.9 mph 28.8 mph N/A   Overcast
9:00 PM 64.4 °F 59.0 °F 83% 29.57 in 15.0 mi South 18.4 mph 31.1 mph N/A   Overcast
9:40 PM 64.4 °F 59.0 °F 83% 29.54 in 3.0 mi SSW 26.5 mph 44.9 mph N/A Rain Rain Showers
10:00 PM 62.6 °F 59.0 °F 88% 29.53 in 15.0 mi South 21.9 mph 31.1 mph N/A Rain Light Rain Showers
10:10 PM 64.4 °F 59.0 °F 83% 29.53 in 15.0 mi South 19.6 mph 34.5 mph N/A   Mostly Cloudy
11:00 PM 64.4 °F 59.0 °F 83% 29.51 in 15.0 mi SSW 23.0 mph 35.7 mph N/A   Mostly Cloudy